Hourly Weather Godziszewy

Today, 17 January, Sunday

Time Temperature Precipitation Wind Pressure Humidity
00:00 -18°C° 0 mm 3 mps 750 mmHg 93%
01:00 -19°C° 0 mm 3 mps 751 mmHg 93%
02:00 -21°C° 0 mm 3 mps 751 mmHg 92%
03:00 -21°C° 0 mm 3 mps 751 mmHg 92%
04:00 -21°C° 0 mm 3 mps 751 mmHg 91%
05:00 -22°C° 0 mm 3 mps 752 mmHg 91%
06:00 -20°C° 0 mm 2 mps 752 mmHg 90%
07:00 -20°C° 0 mm 2 mps 752 mmHg 90%
08:00 -19°C° 0 mm 2 mps 753 mmHg 88%
09:00 -18°C° 0 mm 2 mps 753 mmHg 87%
10:00 -18°C° 0 mm 2 mps 754 mmHg 86%
11:00 -17°C° 0 mm 2 mps 754 mmHg 84%
12:00 -16°C° 0 mm 2 mps 754 mmHg 82%
13:00 -13°C° 0 mm 1 mps 754 mmHg 81%
14:00 -14°C° 0 mm 1 mps 754 mmHg 83%
15:00 -14°C° 0 mm 1 mps 754 mmHg 85%
16:00 -15°C° 0 mm 1 mps 754 mmHg 87%
17:00 -15°C° 0 mm 1 mps 754 mmHg 87%
18:00 -16°C° 0 mm 0 mps 754 mmHg 87%
19:00 -16°C° 0 mm 0 mps 755 mmHg 87%
20:00 -16°C° 0 mm 0 mps 755 mmHg 87%
21:00 -16°C° 0 mm 0 mps 755 mmHg 87%
22:00 -17°C° 0 mm 0 mps 755 mmHg 87%
23:00 -17°C° 0 mm 0 mps 755 mmHg 87%

Tomorrow, 18 January, Monday

Time Temperature Precipitation Wind Pressure Humidity
00:00 -17°C° 0 mm 1 mps 755 mmHg 88%
01:00 -17°C° 0 mm 1 mps 755 mmHg 88%
02:00 -17°C° 0 mm 1 mps 755 mmHg 88%
03:00 -17°C° 0 mm 1 mps 754 mmHg 89%
04:00 -17°C° 0 mm 1 mps 754 mmHg 89%
05:00 -17°C° 0 mm 1 mps 754 mmHg 88%
06:00 -17°C° 0 mm 1 mps 754 mmHg 88%
07:00 -17°C° 0 mm 1 mps 754 mmHg 87%
08:00 -16°C° 0 mm 1 mps 754 mmHg 88%
09:00 -17°C° 0 mm 2 mps 754 mmHg 88%
10:00 -16°C° 0 mm 2 mps 754 mmHg 89%
11:00 -15°C° 0 mm 2 mps 754 mmHg 88%
12:00 -14°C° 0 mm 2 mps 754 mmHg 88%
13:00 -13°C° 0 mm 2 mps 754 mmHg 88%
14:00 -14°C° 0 mm 2 mps 753 mmHg 89%
15:00 -14°C° 0 mm 2 mps 753 mmHg 90%
16:00 -15°C° 0 mm 2 mps 752 mmHg 92%
17:00 -15°C° 0 mm 2 mps 752 mmHg 92%
18:00 -15°C° 0 mm 3 mps 752 mmHg 92%
19:00 -15°C° 0 mm 3 mps 752 mmHg 92%
20:00 -14°C° 0 mm 3 mps 752 mmHg 92%
21:00 -14°C° 0 mm 3 mps 751 mmHg 92%
22:00 -13°C° 0 mm 3 mps 751 mmHg 92%
23:00 -14°C° 0.1 mm 4 mps 750 mmHg 93%

Day after tomorrow, 19 January, Tuesday

Time Temperature Precipitation Wind Pressure Humidity
00:00 -12°C° 0.1 mm 4 mps 750 mmHg 94%
01:00 -12°C° 0.1 mm 4 mps 749 mmHg 94%
02:00 -11°C° 0.2 mm 4 mps 749 mmHg 95%
03:00 -10°C° 0.2 mm 4 mps 748 mmHg 95%
04:00 -8°C° 0.2 mm 3 mps 748 mmHg 95%
05:00 -7°C° 0.3 mm 3 mps 748 mmHg 96%
06:00 -5°C° 0.3 mm 3 mps 748 mmHg 97%
07:00 -4°C° 0.3 mm 3 mps 747 mmHg 97%
08:00 -2°C° 0.1 mm 3 mps 747 mmHg 98%
09:00 -2°C° 0.1 mm 3 mps 747 mmHg 98%
10:00 -1°C° 0.1 mm 3 mps 747 mmHg 98%
11:00 -1°C° 0.1 mm 3 mps 747 mmHg 99%
12:00 -1°C° 0.1 mm 3 mps 746 mmHg 99%
13:00 -1°C° 0.1 mm 3 mps 746 mmHg 99%
14:00 -1°C° 0.1 mm 3 mps 746 mmHg 98%
15:00 -1°C° 0.1 mm 3 mps 746 mmHg 98%
16:00 -1°C° 0.1 mm 3 mps 745 mmHg 98%
17:00 -1°C° 0.1 mm 3 mps 745 mmHg 98%
18:00 -1°C° 0.1 mm 3 mps 745 mmHg 97%
19:00 -2°C° 0.1 mm 4 mps 745 mmHg 97%
20:00 -2°C° 0 mm 4 mps 745 mmHg 97%
21:00 -2°C° 0 mm 4 mps 745 mmHg 96%
22:00 -3°C° 0 mm 4 mps 744 mmHg 96%
23:00 -3°C° 0.1 mm 4 mps 744 mmHg 96%

20 January, Wednesday

Time Temperature Precipitation Wind Pressure Humidity
00:00 -3°C° 0.1 mm 4 mps 744 mmHg 96%
01:00 -3°C° 0.1 mm 4 mps 743 mmHg 97%
02:00 -4°C° 0.2 mm 5 mps 743 mmHg 97%
03:00 -4°C° 0.2 mm 5 mps 743 mmHg 96%
04:00 -4°C° 0.2 mm 5 mps 743 mmHg 96%
05:00 -2°C° 0.4 mm 5 mps 742 mmHg 97%
06:00 -2°C° 0.4 mm 4 mps 742 mmHg 98%
07:00 -1°C° 0.4 mm 4 mps 742 mmHg 98%
08:00 -1°C° 0.4 mm 4 mps 742 mmHg 99%
09:00 -1°C° 0.4 mm 4 mps 742 mmHg 99%
10:00 -1°C° 0.4 mm 5 mps 743 mmHg 99%
11:00 -1°C° 0.1 mm 5 mps 742 mmHg 99%
12:00 -1°C° 0.1 mm 5 mps 742 mmHg 99%
13:00 -1°C° 0.1 mm 5 mps 742 mmHg 99%
14:00 -1°C° 0.1 mm 5 mps 742 mmHg 99%
15:00 -1°C° 0.1 mm 5 mps 742 mmHg 98%
16:00 -1°C° 0.1 mm 5 mps 742 mmHg 98%
17:00 -1°C° 0.1 mm 5 mps 742 mmHg 97%
18:00 -1°C° 0.1 mm 4 mps 742 mmHg 96%
19:00 -1°C° 0.1 mm 4 mps 742 mmHg 95%
20:00 -1°C° 0 mm 4 mps 742 mmHg 94%
21:00 -1°C° 0 mm 4 mps 742 mmHg 93%
22:00 0°C° 0 mm 3 mps 742 mmHg 91%
23:00 -1°C° 0 mm 4 mps 742 mmHg 90%

21 January, Thursday

Time Temperature Precipitation Wind Pressure Humidity
00:00 -2°C° 0 mm 4 mps 742 mmHg 89%
01:00 -2°C° 0 mm 4 mps 742 mmHg 88%
02:00 -2°C° 0 mm 4 mps 742 mmHg 87%
03:00 -2°C° 0 mm 3 mps 742 mmHg 86%
04:00 -2°C° 0 mm 3 mps 742 mmHg 86%
05:00 -3°C° 0 mm 4 mps 742 mmHg 86%
06:00 -3°C° 0 mm 4 mps 741 mmHg 86%
07:00 -3°C° 0 mm 4 mps 741 mmHg 87%
08:00 -2°C° 0 mm 4 mps 741 mmHg 89%
09:00 -1°C° 0 mm 4 mps 741 mmHg 92%
10:00 -1°C° 0 mm 4 mps 741 mmHg 94%
11:00 0°C° 0 mm 3 mps 740 mmHg 96%
12:00 0°C° 0 mm 3 mps 740 mmHg 98%
13:00 +1°C° 0 mm 3 mps 740 mmHg 99%
14:00 -1°C° 0 mm 4 mps 739 mmHg 98%
15:00 -1°C° 0 mm 4 mps 739 mmHg 96%
16:00 -1°C° 0 mm 4 mps 739 mmHg 94%
17:00 -1°C° 0 mm 4 mps 739 mmHg 94%
18:00 -1°C° 0 mm 4 mps 739 mmHg 94%
19:00 -1°C° 0 mm 4 mps 739 mmHg 94%
20:00 -1°C° 0 mm 5 mps 739 mmHg 92%
21:00 -1°C° 0 mm 5 mps 739 mmHg 91%
22:00 -2°C° 0 mm 5 mps 740 mmHg 90%
23:00 -2°C° 0 mm 5 mps 740 mmHg 90%

22 January, Friday

Time Temperature Precipitation Wind Pressure Humidity
00:00 -2°C° 0 mm 5 mps 740 mmHg 90%
01:00 -2°C° 0 mm 5 mps 740 mmHg 90%
02:00 -2°C° 0 mm 5 mps 740 mmHg 89%
03:00 -2°C° 0 mm 5 mps 740 mmHg 87%
04:00 -2°C° 0 mm 4 mps 740 mmHg 86%
05:00 -2°C° 0 mm 4 mps 740 mmHg 87%
06:00 -2°C° 0 mm 4 mps 740 mmHg 88%
07:00 -2°C° 0 mm 4 mps 740 mmHg 88%
08:00 -2°C° 0 mm 4 mps 740 mmHg 89%
09:00 -1°C° 0 mm 4 mps 739 mmHg 89%
10:00 0°C° 0 mm 3 mps 739 mmHg 90%
11:00 0°C° 0 mm 3 mps 739 mmHg 93%
12:00 0°C° 0 mm 3 mps 739 mmHg 95%
13:00 0°C° 0 mm 3 mps 739 mmHg 98%
14:00 0°C° 0 mm 3 mps 739 mmHg 97%
15:00 0°C° 0 mm 3 mps 738 mmHg 96%
16:00 +1°C° 0 mm 2 mps 738 mmHg 94%
17:00 +1°C° 0 mm 2 mps 738 mmHg 95%
18:00 +1°C° 0 mm 2 mps 738 mmHg 95%
19:00 +1°C° 0 mm 2 mps 737 mmHg 95%
20:00 +1°C° 0.4 mm 2 mps 737 mmHg 96%
21:00 +1°C° 0.4 mm 2 mps 737 mmHg 97%
22:00 +2°C° 0.4 mm 1 mps 737 mmHg 98%
23:00 +1°C° 0.2 mm 2 mps 737 mmHg 98%
Show more